TimeEDT,TemperatureF,Dew PointF,Humidity,Sea Level PressureIn,VisibilityMPH,Wind Direction,Wind SpeedMPH,Gust SpeedMPH,PrecipitationIn,Events,Conditions,WindDirDegrees,DateUTC
12:54 AM,28.0,9.0,45,29.82,10.0,West,9.2,-,N/A,,Clear,280,2013-03-22 04:54:00
1:54 AM,27.0,10.0,49,29.83,10.0,West,9.2,-,N/A,,Clear,280,2013-03-22 05:54:00
2:54 AM,27.0,10.9,51,29.82,10.0,West,5.8,-,N/A,,Clear,270,2013-03-22 06:54:00
3:54 AM,27.0,12.0,53,29.82,10.0,West,6.9,-,N/A,,Clear,260,2013-03-22 07:54:00
4:54 AM,27.0,12.0,53,29.82,10.0,West,8.1,-,N/A,,Clear,260,2013-03-22 08:54:00
5:54 AM,26.1,12.9,58,29.83,10.0,West,8.1,-,N/A,,Clear,270,2013-03-22 09:54:00
6:54 AM,28.0,15.1,58,29.84,10.0,West,10.4,-,N/A,,Clear,260,2013-03-22 10:54:00
7:54 AM,28.9,15.1,56,29.86,10.0,West,12.7,-,N/A,,Clear,260,2013-03-22 11:54:00
8:54 AM,33.1,17.1,52,29.87,10.0,West,13.8,21.9,N/A,,Clear,270,2013-03-22 12:54:00
9:54 AM,36.0,17.1,46,29.87,10.0,WNW,19.6,29.9,N/A,,Partly Cloudy,290,2013-03-22 13:54:00
10:54 AM,37.0,17.1,44,29.87,10.0,West,18.4,28.8,N/A,,Scattered Clouds,280,2013-03-22 14:54:00
11:54 AM,39.0,17.1,41,29.86,10.0,WNW,16.1,29.9,N/A,,Mostly Cloudy,300,2013-03-22 15:54:00
12:54 PM,39.9,18.0,41,29.86,10.0,WNW,18.4,28.8,N/A,,Mostly Cloudy,300,2013-03-22 16:54:00
1:54 PM,39.0,17.1,41,29.86,10.0,WNW,19.6,26.5,N/A,,Mostly Cloudy,290,2013-03-22 17:54:00
2:54 PM,39.9,17.1,40,29.85,10.0,WNW,17.3,25.3,N/A,,Overcast,300,2013-03-22 18:54:00
3:54 PM,41.0,17.1,38,29.85,10.0,West,16.1,-,N/A,,Overcast,280,2013-03-22 19:54:00
4:54 PM,42.1,18.0,38,29.86,10.0,West,16.1,-,N/A,,Overcast,280,2013-03-22 20:54:00
5:54 PM,41.0,17.1,38,29.86,10.0,WNW,16.1,-,N/A,,Mostly Cloudy,290,2013-03-22 21:54:00
6:54 PM,39.9,17.1,40,29.89,10.0,WNW,13.8,-,N/A,,Scattered Clouds,300,2013-03-22 22:54:00
7:54 PM,37.9,17.1,43,29.91,10.0,West,5.8,-,N/A,,Partly Cloudy,260,2013-03-22 23:54:00
8:54 PM,36.0,18.0,48,29.93,10.0,West,8.1,-,N/A,,Clear,280,2013-03-23 00:54:00
9:54 PM,33.1,18.0,54,29.95,10.0,West,6.9,-,N/A,,Clear,280,2013-03-23 01:54:00
10:54 PM,34.0,18.0,52,29.96,10.0,West,6.9,-,N/A,,Clear,270,2013-03-23 02:54:00
11:54 PM,33.1,18.0,54,29.96,10.0,West,8.1,-,N/A,,Clear,280,2013-03-23 03:54:00